Location: Newark
(33.4453°N, 112.0669°W)
Time: 20:38:15
(UTC+00:00)

Transit 2A - All Passes

Search period start: 28 February 2020 00:00
Search period end: 09 March 2020 00:00
Orbit: 599 x 959 km, 66.7° (Epoch: 28 February)

Date Brightness Start Highest point End Pass type
(mag) Time Alt. Az. Time Alt. Az. Time Alt. Az.
28 Feb - 04:15:43 10° NNW 04:21:01 64° ENE 04:26:52 10° SE visible
28 Feb - 06:00:44 10° WNW 06:03:49 15° WSW 06:07:01 10° SW night (unlit)
28 Feb - 18:52:44 10° SW 18:57:00 60° WNW 19:01:20 10° NNE daylight
29 Feb - 03:41:47 10° N 03:46:51 42° ENE 03:52:23 10° SE visible
29 Feb - 05:25:33 10° WNW 05:29:49 23° WSW 05:34:22 10° SSW visible
29 Feb - 18:18:33 10° SSW 18:22:53 81° ESE 18:27:15 10° NNE daylight
01 Mar - 03:08:00 10° N 03:12:38 29° ENE 03:17:38 10° ESE visible
01 Mar - 04:50:52 10° NW 04:55:48 35° WSW 05:01:08 10° S visible
01 Mar - 17:44:40 10° S 17:48:49 46° ESE 17:53:00 10° NE daylight
01 Mar - 19:29:58 10° W 19:32:13 14° NW 19:34:28 10° NNW daylight
02 Mar - 02:34:26 10° N 02:38:22 20° NE 02:42:32 10° ESE visible
02 Mar - 04:16:27 10° NW 04:21:44 53° WSW 04:27:30 10° S visible
02 Mar - 17:11:07 10° SSE 17:14:49 28° ESE 17:18:30 10° NE daylight
02 Mar - 18:54:34 10° WSW 18:57:53 21° NW 19:01:15 10° N daylight
03 Mar - 02:01:16 10° NNE 02:04:01 14° NE 02:06:53 10° E visible
03 Mar - 03:42:12 10° NNW 03:47:38 80° WSW 03:53:36 10° SSE visible
03 Mar - 16:38:04 10° SSE 16:40:50 17° ESE 16:43:36 10° ENE daylight
03 Mar - 18:19:43 10° WSW 18:23:37 33° WNW 18:27:36 10° N daylight
04 Mar - 03:08:06 10° NNW 03:13:30 70° ENE 03:19:26 10° SSE visible
04 Mar - 04:53:29 10° WNW 04:56:16 14° WSW 04:59:09 10° SW visible
04 Mar - 17:45:12 10° SW 17:49:25 54° WNW 17:53:44 10° NNE daylight
05 Mar - 02:34:09 10° NNW 02:39:21 47° ENE 02:45:02 10° SE visible
05 Mar - 04:18:08 10° WNW 04:22:18 22° WSW 04:26:41 10° SSW visible
05 Mar - 17:10:58 10° SSW 17:15:18 89° ESE 17:19:42 10° NNE daylight
06 Mar - 02:00:20 10° N 02:05:08 32° ENE 02:10:20 10° ESE visible
06 Mar - 03:43:23 10° NW 03:48:16 32° WSW 03:53:31 10° S visible
06 Mar - 16:37:02 10° S 16:41:13 52° ESE 16:45:28 10° NE daylight
06 Mar - 18:22:46 10° WNW 18:24:42 13° NW 18:26:39 10° NNW daylight
07 Mar - 01:26:42 10° N 01:30:53 22° NE 01:35:19 10° ESE daylight
07 Mar - 03:08:55 10° NW 03:14:12 49° WSW 03:19:58 10° S visible
07 Mar - 16:03:24 10° S 16:07:11 31° ESE 16:11:03 10° NE daylight
07 Mar - 17:47:12 10° W 17:50:20 19° NW 17:53:33 10° N daylight
08 Mar - 00:53:23 10° NNE 00:56:33 15° NE 00:59:51 10° E daylight
08 Mar - 02:34:38 10° NNW 02:40:07 74° WSW 02:46:07 10° SSE visible
08 Mar - 15:30:12 10° SSE 15:33:13 19° ESE 15:36:15 10° ENE daylight
08 Mar - 17:12:15 10° WSW 17:16:03 30° WNW 17:19:58 10° N daylight
